Regional Weather Roundup
Issued by NWS Midland/Odessa, TX

Skip options and go directly to product.
Home | Oldest Version | Previous Version | Current Version | All | Text Only | Save Text | Print | Product List | Glossary On

Skip product version selection by date and time.   
949
ASUS44 KMAF 301210
RWRMAF
MIDLAND AREA WEATHER ROUNDUP
NATIONAL WEATHER SERVICE MIDLAND TX
600 AM CST FRI JAN 30 2015

...IN SOUTHWEST TEXAS AND SOUTHEAST NEW MEXICO...

CITY           SKY/WX    TMP DP  RH WIND       PRES   REMARKS
ALPINE         CLOUDY    39  28  63 NE7       30.40R WCI  34
ANDREWS        CLOUDY    40  29  66 E10       30.40F WCI  33
ARTESIA        CLOUDY    43  34  70 S5        30.40S
BIG SPRING     CLOUDY    43  27  52 NE14      30.43F WCI  36
CARLSBAD       CLOUDY    44  31  60 E3        30.38F
DRYDEN           N/A     50  32  50 NE14      30.34F
FORT STOCKTON  CLOUDY    44  32  62 E6        30.37S
GUAD PASS      FLURRIES  32  28  85 NE45      30.25F WCI  15
HOBBS          CLOUDY    39  25  56 NE7       30.41S WCI  34
MARFA          CLOUDY    39  28  65 NE10      30.34R WCI  32
MIDLAND AIRPK  CLOUDY    44  28  54 E9        30.41S WCI  39
MIDLAND INTL   CLOUDY    43  27  53 E14       30.39S WCI  36
ODESSA         CLOUDY    42  27  55 E13       30.39F WCI  35
PECOS          CLOUDY    45  33  64 NE6       30.39R
PRESIDIO       FAIR      53  35  49 NE14G24   30.26F
SEMINOLE       MOCLDY    41  27  57 E7        30.42S WCI  36
SNYDER         CLOUDY   N/A N/A N/A NE9       30.44S
WINK           CLOUDY    44  30  57 NE7       30.37F
$$
...OTHER STATIONS IN TEXAS...

CITY           SKY/WX    TMP DP  RH WIND       PRES   REMARKS
ABILENE        CLOUDY    43  30  60 NE8       30.44F WCI  38
AMARILLO       CLOUDY    36  27  69 SE8       30.44F WCI  30
AUSTIN         CLOUDY    49  34  56 N15       30.41R
BROWNSVILLE    MOCLDY    61  60  97 N5        30.27R FOG
CORPUS CHRISTI MOCLDY    59  46  62 N22       30.32R
DALLAS FTW     MOCLDY    42  31  64 N9        30.46S WCI  37
DEL RIO        CLOUDY    56  38  50 N5        30.34S
EL PASO        LGT RAIN  42  37  82 NE9       30.27F WCI  37
HOUSTON INT    MOCLDY    50  39  66 N10       30.36R
LUBBOCK        CLOUDY    39  27  62 E8        30.42F WCI  33
SAN ANGELO     CLOUDY    45  32  60 NE9       30.41S
SAN ANTONIO    CLOUDY    53  35  50 NE9       30.38R
WACO           MOCLDY    45  32  60 N13       30.43S WCI  39
WICHITA FALLS  NOT AVBL
$$
...OTHER LOCATIONS IN NEW MEXICO...

CITY           SKY/WX    TMP DP  RH WIND       PRES   REMARKS
ALAMAGORDO     CLOUDY    43  37  81 NW7       30.28R WCI  39
ALBUQUERQUE    CLOUDY    36  27  69 E21       30.30F WCI  25
CANNON AFB     CLOUDY    37  30  76 SE2       30.40S
CLOVIS         CLOUDY    37  28  70 SE5       30.41S WCI  34
HOLLOMAN AFB   DRIZZLE   41  41 100 SW10      30.26S WCI  35
ROSWELL        CLOUDY    42  28  57 E7        30.38F WCI  38
RUIDOSO        CLOUDY    28  27  93 SE12      30.34F WCI  18
SANTA FE       CLOUDY    30  25  81 SE9       30.32F WCI  22
TRUTH OR CONSE LGT RAIN  40  38  93 N7        30.25F WCI  35
TUCUMCARI      CLOUDY    38  33  82 E3        30.39F
$$

USA.gov is the U.S. government's official web portal to all federal, state and local government web resources and services.